Starlink 30208

operational
NORAD ID: 57415 Int'l Des: 2023-102 Owner: SPXS Country: US Constellation: starlink
LEOCIRCULAR

关于 Starlink 30208

正在加载描述...

实时位置

正在加载3D地球...

即将过境

高度历史

Altitude vs Time

uPlot chart will show altitude changes over time

两行轨道根数

1 57415U 23102M 25306.48170175 .00000914 00000-0 82687-4 0 9998
2 57415 43.0006 219.8573 0000904 255.4119 104.6623 15.02533033127054
Epoch: Nov 2, 2025 • Age: 17 hours

当前状态

高度 562.7 km
速度 7.58 km/s
星下点 -18.60°S, 52.15°W
发射日期 Jul 19, 2023
运行时间 2.2 years
类型 internet

技术详情

分类 Payload
质量 730.00 kg
干质量 700.00 kg
总质量 730.00 kg
长度 0.30 m
直径 4.10 m
跨度 29.00 m
形状 Box + pan
制造商 SPXS
平台类型 Starlink V2M
阶段状态 In Orbit
所有者/国家 SPXS/US

大型星座

Loading constellations...